TimeCDT,TemperatureF,Dew PointF,Humidity,Sea Level PressureIn,VisibilityMPH,Wind Direction,Wind SpeedMPH,Gust SpeedMPH,PrecipitationIn,Events,Conditions,WindDirDegrees,DateUTC
12:15 AM,57.7,44.8,62,30.30,10.0,East,4.6,-,N/A,,Clear,90,2013-05-25 05:15:00
12:35 AM,56.5,44.6,64,30.30,10.0,East,3.5,-,N/A,,Clear,90,2013-05-25 05:35:00
12:55 AM,56.3,46.4,69,30.30,10.0,Calm,Calm,-,N/A,,Clear,0,2013-05-25 05:55:00
1:15 AM,56.1,45.9,68,30.29,10.0,East,3.5,-,N/A,,Clear,80,2013-05-25 06:15:00
1:35 AM,54.5,46.6,75,30.28,10.0,ESE,3.5,-,N/A,,Clear,110,2013-05-25 06:35:00
1:55 AM,55.0,46.6,73,30.25,10.0,SE,9.2,-,N/A,,Scattered Clouds,130,2013-05-25 06:55:00
2:15 AM,56.7,45.3,66,30.23,10.0,SSE,10.4,-,N/A,,Scattered Clouds,150,2013-05-25 07:15:00
2:35 AM,56.8,45.1,65,30.24,10.0,SE,5.8,-,N/A,,Scattered Clouds,140,2013-05-25 07:35:00
2:55 AM,55.4,46.6,72,30.25,10.0,SE,4.6,-,N/A,,Clear,140,2013-05-25 07:55:00
3:15 AM,55.8,45.7,69,30.28,10.0,Calm,Calm,-,N/A,,Clear,0,2013-05-25 08:15:00
3:35 AM,54.7,46.0,73,30.29,10.0,Calm,Calm,-,N/A,,Clear,0,2013-05-25 08:35:00
3:55 AM,53.4,46.6,78,30.29,10.0,Calm,Calm,-,N/A,,Clear,0,2013-05-25 08:55:00
4:15 AM,53.2,48.2,83,30.28,10.0,SE,5.8,-,N/A,,Clear,130,2013-05-25 09:15:00
4:35 AM,54.7,46.8,75,30.28,10.0,Calm,Calm,-,N/A,,Clear,0,2013-05-25 09:35:00
4:55 AM,54.7,47.7,77,30.30,10.0,Calm,Calm,-,N/A,,Scattered Clouds,0,2013-05-25 09:55:00
5:15 AM,54.7,47.5,77,30.31,10.0,NE,4.6,-,N/A,,Scattered Clouds,40,2013-05-25 10:15:00
5:35 AM,54.9,47.3,76,30.33,10.0,NNE,3.5,-,N/A,,Mostly Cloudy,30,2013-05-25 10:35:00
5:55 AM,54.9,48.2,78,30.35,10.0,North,3.5,-,N/A,Rain,Light Rain,10,2013-05-25 10:55:00
6:15 AM,55.0,48.6,79,30.36,10.0,NE,3.5,-,N/A,Rain,Light Rain,50,2013-05-25 11:15:00
6:35 AM,54.5,49.1,82,30.35,10.0,Calm,Calm,-,N/A,,Overcast,0,2013-05-25 11:35:00
6:55 AM,54.3,49.5,84,30.33,10.0,East,5.8,-,N/A,Rain,Light Rain,90,2013-05-25 11:55:00
7:15 AM,54.9,48.4,79,30.33,10.0,East,5.8,-,N/A,,Overcast,100,2013-05-25 12:15:00
7:35 AM,55.0,48.6,79,30.32,10.0,ESE,8.1,-,N/A,,Overcast,110,2013-05-25 12:35:00
7:55 AM,55.0,48.9,80,30.32,10.0,East,9.2,-,N/A,,Overcast,100,2013-05-25 12:55:00
8:15 AM,55.4,48.9,79,30.32,10.0,East,6.9,-,N/A,,Overcast,100,2013-05-25 13:15:00
8:35 AM,56.3,49.3,77,30.31,10.0,ESE,8.1,-,N/A,,Scattered Clouds,110,2013-05-25 13:35:00
8:55 AM,56.8,49.5,76,30.30,10.0,ESE,10.4,-,N/A,,Mostly Cloudy,120,2013-05-25 13:55:00
9:15 AM,57.4,49.1,74,30.32,10.0,SE,6.9,-,N/A,,Overcast,130,2013-05-25 14:15:00
9:35 AM,57.6,48.7,72,30.32,10.0,SE,6.9,-,N/A,,Mostly Cloudy,130,2013-05-25 14:35:00
9:55 AM,57.6,48.9,73,30.30,10.0,East,5.8,-,N/A,,Mostly Cloudy,100,2013-05-25 14:55:00
10:15 AM,57.7,49.1,73,30.30,10.0,East,5.8,-,N/A,,Scattered Clouds,100,2013-05-25 15:15:00
10:35 AM,57.7,49.6,74,30.34,10.0,East,3.5,-,N/A,Rain,Light Rain,90,2013-05-25 15:35:00
10:55 AM,56.7,50.9,81,30.36,7.0,NNE,4.6,-,0.02,Rain,Rain,30,2013-05-25 15:55:00
11:15 AM,55.0,51.6,88,30.36,4.0,NNE,6.9,-,0.06,Rain-Thunderstorm,Thunderstorms and Rain,30,2013-05-25 16:15:00
11:35 AM,54.1,51.1,89,30.34,7.0,ENE,10.4,-,0.10,Rain-Thunderstorm,Thunderstorms and Rain,60,2013-05-25 16:35:00
11:55 AM,54.0,50.9,89,30.33,10.0,ENE,9.2,-,0.13,Rain-Thunderstorm,Thunderstorms and Rain,60,2013-05-25 16:55:00
12:15 PM,53.6,50.9,91,30.33,7.0,East,6.9,-,0.03,Rain-Thunderstorm,Thunderstorms and Rain,80,2013-05-25 17:15:00
12:35 PM,53.6,50.9,91,30.36,7.0,NNE,5.8,-,0.06,Rain-Thunderstorm,Thunderstorms and Rain,30,2013-05-25 17:35:00
12:55 PM,53.6,50.9,91,30.33,5.0,ESE,8.1,-,0.10,Rain-Thunderstorm,Light Thunderstorms and Rain,110,2013-05-25 17:55:00
1:15 PM,53.6,51.1,91,30.30,5.0,ESE,11.5,-,0.03,Rain-Thunderstorm,Light Thunderstorms and Rain,120,2013-05-25 18:15:00
1:35 PM,54.0,51.3,91,30.27,5.0,ESE,15.0,-,0.06,Rain,Light Rain,120,2013-05-25 18:35:00
1:55 PM,55.0,50.9,86,30.26,10.0,ESE,10.4,-,0.06,,Overcast,120,2013-05-25 18:55:00
2:15 PM,56.5,52.3,86,30.25,10.0,SE,13.8,-,N/A,,Mostly Cloudy,130,2013-05-25 19:15:00
2:35 PM,58.1,52.3,81,30.23,10.0,SE,11.5,19.6,N/A,Thunderstorm,Mostly Cloudy,130,2013-05-25 19:35:00
2:55 PM,59.7,52.3,77,30.22,10.0,SE,12.7,-,N/A,,Overcast,140,2013-05-25 19:55:00
3:15 PM,59.9,51.6,74,30.21,10.0,SE,15.0,18.4,N/A,,Overcast,140,2013-05-25 20:15:00
3:35 PM,61.5,52.5,72,30.20,10.0,SSE,15.0,19.6,N/A,,Mostly Cloudy,150,2013-05-25 20:35:00
3:55 PM,62.6,51.8,68,30.19,10.0,SSE,15.0,-,N/A,,Scattered Clouds,150,2013-05-25 20:55:00
4:15 PM,62.8,52.3,69,30.18,10.0,SSE,15.0,-,N/A,,Mostly Cloudy,150,2013-05-25 21:15:00
4:35 PM,63.7,52.5,67,30.18,10.0,SSE,19.6,-,N/A,,Overcast,150,2013-05-25 21:35:00
4:55 PM,64.4,51.4,63,30.18,10.0,SSE,12.7,-,N/A,,Mostly Cloudy,160,2013-05-25 21:55:00
5:15 PM,64.6,51.6,63,30.18,10.0,SSE,12.7,-,N/A,,Mostly Cloudy,160,2013-05-25 22:15:00
5:35 PM,64.4,51.1,62,30.19,10.0,SE,9.2,-,N/A,,Overcast,140,2013-05-25 22:35:00
5:55 PM,64.9,52.2,63,30.19,10.0,ESE,6.9,-,N/A,,Overcast,120,2013-05-25 22:55:00
6:15 PM,64.8,52.7,65,30.18,10.0,SE,6.9,-,N/A,,Mostly Cloudy,130,2013-05-25 23:15:00
6:35 PM,64.4,52.9,66,30.18,10.0,ENE,6.9,-,N/A,,Scattered Clouds,60,2013-05-25 23:35:00
6:55 PM,63.9,53.2,68,30.18,10.0,NE,6.9,-,N/A,,Mostly Cloudy,50,2013-05-25 23:55:00
7:15 PM,63.9,54.0,70,30.18,10.0,ENE,8.1,-,N/A,,Overcast,60,2013-05-26 00:15:00
7:35 PM,62.8,54.5,74,30.18,10.0,NE,6.9,-,N/A,,Overcast,50,2013-05-26 00:35:00
7:55 PM,61.9,55.0,78,30.19,10.0,ENE,8.1,-,N/A,,Overcast,60,2013-05-26 00:55:00
8:15 PM,59.7,53.6,80,30.20,-9999.0,ENE,12.7,-,N/A,,Unknown,60,2013-05-26 01:15:00
8:35 PM,58.3,52.2,80,30.20,10.0,ENE,10.4,-,N/A,,Overcast,70,2013-05-26 01:35:00
8:55 PM,57.6,50.9,78,30.20,10.0,ENE,9.2,19.6,N/A,,Overcast,70,2013-05-26 01:55:00
9:15 PM,57.0,50.2,78,30.21,10.0,ENE,11.5,16.1,N/A,,Overcast,70,2013-05-26 02:15:00
9:35 PM,56.7,50.0,78,30.21,10.0,ENE,11.5,19.6,N/A,,Overcast,70,2013-05-26 02:35:00
9:55 PM,56.5,50.0,79,30.23,10.0,East,10.4,-,N/A,,Overcast,80,2013-05-26 02:55:00
10:15 PM,56.5,49.1,76,30.23,10.0,East,12.7,17.3,N/A,,Overcast,90,2013-05-26 03:15:00
10:35 PM,56.5,48.9,76,30.23,10.0,East,11.5,17.3,N/A,,Overcast,90,2013-05-26 03:35:00
10:55 PM,56.5,48.6,75,30.23,10.0,East,10.4,-,N/A,,Overcast,90,2013-05-26 03:55:00
11:15 PM,56.5,48.2,74,30.23,10.0,East,11.5,17.3,N/A,,Overcast,90,2013-05-26 04:15:00
11:35 PM,56.3,48.0,74,30.21,10.0,East,13.8,-,N/A,,Overcast,100,2013-05-26 04:35:00
11:55 PM,56.1,48.2,75,30.22,10.0,East,6.9,-,N/A,,Overcast,90,2013-05-26 04:55:00